Date,TemperatureHighF,TemperatureAvgF,TemperatureLowF,DewpointHighF,DewpointAvgF,DewpointLowF,HumidityHigh,HumidityAvg,HumidityLow,PressureMaxIn,PressureMinIn,WindSpeedMaxMPH,WindSpeedAvgMPH,GustSpeedMaxMPH,PrecipitationSumIn
2012-9-13,45,44,43,20,19,19,37,36,36,29.79,29.73,0,0,0,0.00
2012-9-14,79,55,35,35,24,16,49,33,17,29.76,29.53,6,0,6,0.00
2012-9-15,80,57,40,37,26,16,42,31,17,29.64,29.47,7,0,7,0.00
2012-9-16,68,54,41,36,30,23,49,40,30,29.73,29.55,10,1,10,0.00
2012-9-17,70,51,33,37,28,20,63,44,23,29.70,29.52,9,0,9,0.00
2012-9-18,78,57,38,40,30,22,58,39,22,29.62,29.45,12,1,12,0.00
2012-9-19,78,56,37,39,30,21,57,37,21,29.70,29.50,8,0,8,0.00
2012-9-20,78,58,40,40,31,23,53,37,22,29.70,29.51,7,0,7,0.00
2012-9-21,77,62,40,41,34,23,56,36,23,29.69,29.50,10,1,10,0.00
2012-9-22,77,56,38,43,33,23,60,42,29,29.64,29.45,7,1,7,0.00
2012-9-23,74,56,41,41,33,25,57,42,29,29.61,29.47,9,0,9,0.00
2012-9-24,75,56,39,43,34,26,62,45,29,29.56,29.36,7,0,7,0.00
2012-9-25,74,60,41,47,39,29,64,47,34,29.51,29.38,5,0,5,0.00
2012-9-26,68,52,39,46,36,28,69,57,44,29.59,29.45,7,1,7,0.00
2012-9-27,72,52,36,47,37,27,75,58,39,29.65,29.47,7,0,7,0.00
2012-9-28,74,54,37,45,35,28,72,52,30,29.55,29.36,5,0,5,0.00
2012-9-29,74,60,49,46,38,32,57,45,31,29.59,29.42,7,0,7,0.00
2012-9-30,74,54,42,40,33,14,68,48,10,29.75,29.56,15,1,15,0.00
2012-10-1,74,54,35,40,32,24,65,46,25,29.72,29.35,9,0,9,0.00
2012-10-2,70,56,44,39,32,23,62,41,25,29.41,29.24,13,1,13,0.00
2012-10-3,47,37,31,36,32,26,89,82,58,29.88,29.36,7,0,7,0.22
2012-10-4,43,35,30,32,28,25,83,73,60,29.81,29.69,5,0,5,0.03
2012-10-5,42,34,22,30,23,14,78,64,41,29.82,29.70,7,0,7,0.00
2012-10-6,51,32,16,28,19,10,80,59,34,29.76,29.60,3,0,3,0.00
2012-10-7,59,41,27,32,26,19,81,57,31,29.61,29.38,13,1,13,0.00
2012-10-8,56,43,33,38,32,24,75,65,47,29.50,29.32,7,0,7,0.00
2012-10-9,54,43,34,35,31,25,75,63,45,29.57,29.46,4,0,4,0.00
2012-10-10,44,36,31,35,27,24,76,72,69,29.56,29.45,2,0,2,0.00
2012-10-11,53,42,33,36,31,25,76,65,51,29.58,29.39,7,0,7,0.00
2012-10-12,68,45,26,38,28,21,86,58,24,29.40,29.22,7,0,7,0.00
2012-10-13,61,50,44,43,34,26,75,55,42,29.61,29.30,11,0,11,0.00
2012-10-14,68,52,40,40,35,31,74,55,30,29.61,29.36,8,0,8,0.00
2012-10-15,64,52,45,44,37,31,70,58,41,29.38,29.23,13,0,13,0.00
2012-10-16,57,50,40,49,37,23,90,64,36,29.37,28.93,34,2,34,0.17
2012-10-17,46,39,29,24,20,16,60,48,35,29.67,29.33,23,2,23,0.00
2012-10-18,56,37,22,31,21,14,72,56,30,29.66,29.43,5,0,5,0.00
2012-10-19,66,49,35,39,32,25,69,53,35,29.43,29.15,14,1,14,0.00
2012-10-20,54,44,30,40,30,18,67,59,49,29.26,29.09,10,0,10,0.00
2012-10-21,45,33,22,23,19,13,73,57,39,29.36,29.25,8,1,8,0.00
2012-10-22,41,31,22,30,21,14,78,68,53,29.29,29.08,4,0,4,0.00
2012-10-23,33,28,24,25,22,17,81,78,73,29.39,29.11,7,0,7,0.00
2012-10-24,33,25,17,27,19,10,80,77,75,29.55,29.39,5,0,5,0.08
2012-10-25,28,24,22,20,17,14,80,73,64,29.78,29.55,5,0,5,0.00
2012-10-26,39,27,15,26,19,8,79,72,56,29.77,29.47,5,0,5,0.03
2012-10-27,41,34,28,32,27,21,82,78,68,29.49,29.36,4,0,4,0.06
2012-10-28,58,45,35,43,36,30,85,72,51,29.36,29.28,8,0,8,0.03
2012-10-29,60,49,42,44,38,32,81,66,48,29.45,29.31,8,0,8,0.03
2012-10-30,62,48,38,38,34,30,77,59,37,29.50,29.38,10,1,10,0.00
2012-10-31,62,50,42,41,36,32,72,59,39,29.47,29.27,4,0,4,0.00
2012-11-1,57,48,38,39,34,29,70,60,42,29.40,29.24,8,0,8,0.00
2012-11-2,51,42,33,38,32,25,83,69,50,29.55,29.39,5,0,5,0.03
2012-11-3,54,40,28,36,29,22,82,67,44,29.58,29.47,7,0,7,0.00
2012-11-4,58,50,45,40,38,36,70,62,49,29.70,29.49,9,0,9,0.00
2012-11-5,65,54,44,43,38,33,67,56,38,29.66,29.53,9,1,9,0.00
2012-11-6,63,49,38,40,34,30,75,59,39,29.62,29.35,7,0,7,0.00
2012-11-7,42,37,29,31,26,19,68,63,52,29.41,29.31,2,0,2,0.00
2012-11-8,31,28,26,24,22,17,80,75,67,29.39,29.17,4,0,4,0.00
2012-11-9,27,19,13,22,14,8,80,79,75,29.34,29.15,6,0,6,0.00
2012-11-10,18,9,-2,15,4,-7,86,81,74,29.43,29.32,3,0,3,0.00
2012-11-11,23,12,-1,20,8,-6,89,84,80,29.63,29.39,8,0,8,0.00
2012-11-12,40,26,10,37,22,6,90,87,83,29.65,29.52,5,0,5,0.00
2012-11-13,46,35,28,40,29,20,90,80,63,29.67,29.51,6,0,6,0.06
2012-11-14,44,32,26,33,24,19,78,73,60,29.63,29.48,5,0,5,0.03
2012-11-15,39,28,22,28,20,15,77,71,63,29.67,29.50,7,0,7,0.03
2012-11-16,36,30,25,28,22,16,76,73,70,29.50,29.37,0,0,0,0.06
2012-11-17,47,35,27,36,28,20,79,73,63,29.43,29.15,8,0,8,0.00
2012-11-18,44,35,24,41,31,22,90,85,74,29.42,29.10,13,0,13,0.03
2012-11-19,47,36,21,39,29,18,89,78,64,29.44,29.32,12,1,12,0.00
2012-11-20,55,48,43,40,36,32,67,62,57,29.36,29.23,14,1,14,0.00
2012-11-21,48,40,31,37,31,19,85,69,56,29.40,29.15,8,0,8,0.08
2012-11-22,37,31,22,22,19,12,66,60,50,29.79,29.40,8,1,8,0.00
2012-11-23,42,30,21,28,19,11,69,65,58,29.78,29.44,8,0,8,0.00
2012-11-24,48,41,29,35,29,20,69,62,51,29.47,29.39,6,0,6,0.00
2012-11-25,38,34,25,28,22,14,72,62,50,29.61,29.35,8,1,8,0.00
2012-11-26,35,23,15,20,12,6,69,62,50,29.65,29.50,5,0,5,0.00
2012-11-27,36,26,17,23,16,8,70,64,56,29.59,29.47,2,0,0,0.00
2012-11-28,47,34,25,31,23,17,71,65,53,29.48,29.25,7,0,7,0.00
2012-11-29,50,41,34,34,29,23,72,63,53,29.35,29.22,4,0,4,0.00
2012-11-30,53,43,36,42,33,28,86,67,54,29.28,29.05,18,1,18,0.03
2012-12-1,50,39,31,38,30,24,79,71,57,29.20,29.11,10,0,10,0.00
2012-12-2,55,42,29,41,33,25,88,72,54,29.24,28.72,18,1,18,0.11
2012-12-3,44,36,28,31,26,22,85,68,59,29.52,29.24,9,0,9,0.00
2012-12-4,50,40,29,35,28,19,68,63,56,29.52,29.29,9,1,9,0.00
2012-12-5,51,40,25,39,28,14,69,62,53,29.47,29.18,10,1,10,0.00
2012-12-6,36,29,23,24,19,14,70,65,56,29.47,29.30,4,0,4,0.00
2012-12-7,36,31,23,24,20,15,79,65,57,29.34,29.08,13,0,13,1.76
2012-12-8,29,20,3,23,15,-2,83,81,79,29.56,29.10,10,1,10,0.00
2012-12-9,24,10,-5,20,5,-10,84,81,77,29.64,29.38,4,0,4,0.00
2012-12-10,35,30,24,26,23,20,84,76,66,29.46,29.32,16,2,16,0.00
2012-12-11,43,36,31,39,29,23,85,76,69,29.34,28.97,5,0,5,0.03
2012-12-12,40,33,25,34,27,18,81,79,76,29.25,28.99,0,0,0,0.00
2012-12-13,26,19,11,20,12,4,78,75,71,29.30,29.20,0,0,0,0.00
2012-12-14,29,20,9,21,12,2,74,73,73,29.22,29.12,2,0,2,0.00
2012-12-15,37,24,15,26,16,8,76,71,62,29.25,29.05,5,0,5,0.00
2012-12-16,32,24,15,21,14,7,73,66,57,29.14,28.97,10,0,10,0.00
2012-12-17,31,29,21,21,17,11,66,61,58,29.07,28.91,7,1,7,0.00
2012-12-18,27,20,10,12,7,-1,61,56,51,29.28,29.07,9,0,9,0.00
2012-12-19,26,18,6,12,6,-4,66,59,53,29.49,29.28,8,1,8,0.00
2012-12-20,18,17,9,7,7,-2,65,62,62,29.45,29.35,0,0,0,0.00
2012-12-21,33,31,18,21,19,7,63,61,57,29.38,29.31,0,0,0,0.00
2012-12-22,29,22,16,17,11,6,67,64,60,29.36,29.17,2,0,2,0.00
2012-12-23,28,20,14,18,12,6,73,69,60,29.36,29.16,5,0,5,0.00
2012-12-24,26,7,4,16,0,-2,76,75,65,29.58,29.18,7,1,7,0.00
2012-12-25,12,9,5,6,3,-2,76,73,72,29.61,29.27,5,0,5,0.00
2012-12-26,22,21,21,15,14,3,74,72,71,29.27,29.15,2,0,2,0.00
2012-12-27,34,25,14,24,17,7,75,70,64,29.35,29.20,6,0,6,0.00
2012-12-28,32,23,14,21,12,5,72,64,58,29.48,29.33,24,1,7,0.00
2012-12-29,29,18,8,18,9,0,71,67,59,29.50,29.34,2,0,2,0.03
2012-12-30,29,18,11,19,9,2,72,67,61,29.52,29.39,0,0,0,0.00
2012-12-31,28,20,5,17,11,-3,71,66,62,29.68,29.47,3,0,3,0.00
2013-1-1,31,22,8,19,12,-1,66,64,60,29.70,29.60,2,0,2,0.00